Temp
66 65 64 64 63 62 60 60 59 58 58 57 56 57 56 57 57 58 59 59 59 58 57 56 56 55 53 52 52 52 51 51
63 62 61 60 59 59 57 56 55 59 57 55 53 53 54 55 57 57 57 57 57 55 55 55 53 51 50 52 51 50 51 51
59 58 60 60 57 56 56 56 55 56 58 54 55 57 54 55 55 55 56 56 55 55 53 52 51 50 49 49 49 48 49 49
57 57 56 55 54 55 55 55 56 57 58 59 59 58 54 53 52 52 53 54 54 53 52 51 49 48 47 46 47 48 47 50
58 56 54 54 54 55 56 57 58 61 61 59 57 55 52 51 51 50 51 53 52 52 51 50 48 48 47 48 48 46 46 44
57 57 57 56 55 56 57 59 60 60 58 59 57 54 51 50 51 50 49 50 51 51 50 49 48 47 46 46 45 45 45 44
61 60 58 55 55 55 57 58 59 56 57 56 56 53 52 50 49 48 47 47 48 49 50 48 47 47 46 46 45 44 44 44
63 57 56 54 53 54 55 58 57 56 54 55 54 54 53 51 50 48 47 46 45 46 47 47 46 46 47 47 45 44 43 43
63 58 56 55 54 54 55 55 55 54 53 53 55 55 53 52 51 49 48 48 46 47 47 47 47 47 47 45 44 43 43 43
61 60 57 56 55 55 55 55 54 53 53 53 53 53 53 50 50 49 49 48 50 48 47 47 47 46 45 44 43 43 43 42
62 62 58 58 57 57 56 55 53 51 51 53 53 51 51 51 51 49 49 48 48 47 47 48 46 46 45 44 43 43 42 41
63 62 59 59 58 56 53 54 52 51 50 49 50 49 50 51 50 49 49 48 47 48 48 47 47 46 46 44 44 45 44 42
63 60 59 57 56 53 54 54 52 51 49 48 48 48 49 48 48 48 48 48 48 48 48 48 48 47 46 45 45 45 43 42
62 59 56 55 54 54 54 53 53 51 51 49 47 47 48 47 47 48 48 47 47 47 46 46 46 45 46 45 46 44 43 42
60 57 55 55 54 54 53 53 52 51 51 50 47 47 47 47 47 47 47 47 46 45 44 44 43 43 44 46 46 44 43 43
58 54 53 53 53 54 55 53 52 52 50 49 47 47 47 47 46 46 46 46 45 44 42 40 40 41 42 41 43 43 42 41
57 55 54 53 54 54 54 53 52 52 50 49 48 47 48 47 46 45 45 44 43 41 39 38 37 41 38 40 41 42 43 41
57 57 56 55 56 56 53 53 52 51 50 49 48 48 48 46 46 45 44 42 40 38 37 36 35 35 38 39 40 41 41 40
53 61 59 57 57 57 54 54 51 50 49 49 49 48 47 47 46 44 42 42 39 37 35 35 34 36 38 38 38 40 40 38
MSLP
1011.79 1012.21 1013.31 1014.09 1014.96 1015.48 1015.97 1016.41 1016.84 1017.16 1017.83 1018.40 1018.80 1019.04 1019.38 1019.46 1019.69 1019.75 1019.74 1019.97 1020.02 1020.12 1020.40 1020.66 1020.69 1020.82 1021.09 1021.17 1021.31 1021.37 1021.49 1021.51
1012.33 1012.74 1013.45 1014.27 1015.21 1015.75 1016.23 1016.68 1017.25 1017.26 1017.96 1018.72 1019.22 1019.66 1019.94 1020.11 1020.12 1020.28 1020.33 1020.37 1020.58 1020.69 1020.91 1021.16 1021.28 1021.57 1021.75 1021.70 1021.85 1021.95 1021.91 1021.95
1012.43 1013.09 1013.72 1014.41 1015.12 1015.57 1016.18 1016.59 1017.03 1017.25 1017.76 1018.39 1018.89 1019.60 1020.10 1020.34 1020.55 1020.75 1020.89 1020.88 1021.08 1021.25 1021.45 1021.77 1021.91 1022.17 1022.16 1022.18 1022.15 1022.50 1022.62 1022.48
1012.66 1013.51 1014.23 1014.86 1015.32 1015.55 1015.95 1016.52 1017.03 1017.31 1017.76 1018.39 1019.00 1019.70 1020.36 1020.76 1021.00 1021.21 1021.46 1021.38 1021.49 1021.78 1021.94 1022.09 1022.37 1022.50 1022.66 1022.62 1022.51 1022.68 1023.16 1023.21
1012.21 1013.36 1014.19 1014.57 1014.94 1015.30 1015.65 1016.38 1016.84 1017.33 1017.62 1018.09 1018.50 1019.12 1020.20 1020.85 1021.13 1021.49 1021.77 1021.77 1021.97 1022.08 1022.30 1022.47 1022.75 1022.88 1022.92 1023.07 1023.04 1023.19 1023.36 1023.69
1011.36 1011.90 1012.48 1013.24 1013.99 1014.58 1015.26 1016.06 1016.57 1016.97 1017.40 1017.75 1018.40 1019.15 1019.98 1020.88 1021.27 1021.66 1022.16 1022.26 1022.35 1022.56 1022.62 1022.86 1023.13 1023.29 1023.47 1023.64 1023.89 1023.89 1024.02 1024.02
1010.21 1010.82 1011.85 1012.81 1013.56 1014.28 1014.80 1015.54 1016.32 1016.80 1017.20 1017.61 1018.11 1018.89 1019.80 1020.80 1021.32 1021.82 1022.33 1022.64 1022.84 1023.04 1023.01 1023.23 1023.47 1023.71 1023.94 1024.23 1024.35 1024.43 1024.69 1024.84
1009.28 1010.49 1011.62 1012.67 1013.23 1013.80 1014.43 1015.08 1016.13 1016.66 1017.09 1017.36 1017.89 1018.62 1019.33 1020.35 1020.91 1021.62 1022.37 1022.77 1023.15 1023.43 1023.44 1023.58 1023.84 1024.11 1024.26 1024.49 1024.93 1025.27 1025.47 1025.63
1008.33 1009.40 1010.63 1011.60 1012.65 1013.24 1014.07 1015.01 1015.79 1016.45 1017.08 1017.59 1018.05 1018.44 1019.28 1020.10 1020.72 1021.41 1022.28 1022.66 1023.09 1023.35 1023.62 1023.92 1024.00 1024.30 1024.79 1025.04 1025.40 1025.81 1026.14 1026.42
1007.25 1008.18 1009.20 1010.41 1011.42 1012.00 1012.67 1014.08 1015.39 1016.22 1016.90 1017.45 1018.18 1018.49 1019.15 1019.87 1020.82 1021.41 1022.01 1022.57 1022.92 1023.36 1023.65 1024.09 1024.33 1024.43 1025.08 1025.65 1026.02 1026.24 1026.48 1026.97
1006.02 1006.83 1007.97 1008.99 1010.05 1011.11 1011.99 1012.99 1014.36 1015.79 1016.76 1017.20 1017.86 1018.52 1019.09 1019.75 1020.57 1021.47 1022.13 1022.39 1022.97 1023.40 1023.73 1024.24 1024.67 1024.80 1025.43 1026.02 1026.44 1026.71 1026.91 1027.37
1005.45 1006.31 1007.69 1008.83 1010.03 1011.41 1012.42 1013.29 1014.56 1015.50 1016.49 1017.45 1018.12 1018.82 1019.33 1019.96 1020.67 1021.44 1022.13 1022.64 1023.28 1023.56 1023.86 1024.37 1024.82 1025.21 1025.73 1026.31 1026.68 1026.95 1027.30 1027.60
1005.65 1006.98 1008.02 1009.04 1010.06 1011.39 1012.00 1012.89 1013.89 1015.14 1016.39 1017.29 1018.51 1019.16 1019.60 1020.33 1021.08 1021.55 1022.01 1022.83 1023.38 1023.63 1024.12 1024.59 1025.08 1025.38 1025.75 1026.13 1026.67 1027.10 1027.44 1027.73
1004.93 1006.48 1007.67 1008.36 1009.58 1010.89 1012.09 1013.00 1013.87 1014.83 1015.75 1016.90 1018.15 1019.13 1019.66 1020.40 1021.08 1021.73 1022.25 1022.85 1023.43 1023.89 1024.42 1024.85 1025.31 1025.74 1026.08 1026.31 1026.48 1026.95 1027.27 1027.68
1004.59 1006.50 1007.66 1008.88 1010.29 1010.81 1011.33 1012.89 1013.87 1014.65 1015.70 1016.79 1017.70 1018.78 1019.39 1020.17 1021.01 1021.69 1022.28 1022.84 1023.43 1024.23 1024.80 1025.24 1025.71 1026.09 1026.22 1026.39 1026.55 1026.99 1027.30 1027.76
1004.43 1005.96 1007.41 1008.65 1009.46 1010.88 1012.40 1012.80 1013.70 1014.79 1015.42 1016.52 1017.41 1018.32 1019.14 1020.05 1020.88 1021.59 1022.38 1023.17 1023.72 1024.47 1025.17 1025.90 1026.32 1026.51 1026.62 1026.85 1026.85 1027.07 1027.49 1027.94
1005.69 1006.76 1007.25 1007.70 1008.72 1009.83 1011.18 1012.38 1013.59 1014.73 1015.87 1016.54 1017.40 1018.25 1019.10 1020.20 1020.87 1021.63 1022.50 1023.42 1024.10 1024.89 1025.64 1026.16 1026.68 1026.94 1027.14 1027.04 1027.08 1027.19 1027.72 1028.10
1006.61 1005.60 1006.59 1007.73 1007.91 1008.50 1010.21 1011.15 1012.54 1014.04 1015.42 1016.42 1017.25 1017.90 1018.96 1019.99 1020.84 1021.70 1022.58 1023.44 1024.24 1025.10 1025.84 1026.41 1026.83 1027.19 1027.29 1027.20 1027.21 1027.38 1027.82 1028.35
1008.56 1006.97 1004.82 1005.68 1007.03 1008.06 1008.97 1010.17 1011.60 1013.10 1014.61 1015.89 1016.73 1017.55 1018.50 1019.43 1020.46 1021.61 1022.60 1023.37 1024.20 1025.15 1025.92 1026.48 1026.87 1027.22 1027.34 1027.38 1027.40 1027.54 1028.21 1028.67
Wind_Speed
16 18 15 14 11 11 11 8 10 11 8 7 5 5 4 4 4 5 6 5 6 6 6 5 5 5 5 4 6 5 3 3
13 14 16 15 11 12 10 11 7 10 6 5 4 4 3 4 4 6 6 6 6 6 5 5 5 5 4 4 2 6 7 4
14 14 11 11 13 10 9 9 7 6 6 3 4 5 3 4 4 5 5 6 6 6 6 5 6 4 6 6 4 2 4 5
15 13 11 11 11 12 11 9 7 6 7 6 7 7 4 4 3 4 4 6 6 6 6 6 6 4 4 4 5 5 4 6
15 14 13 13 10 9 10 10 10 8 10 10 14 8 8 3 3 4 4 6 6 6 6 6 6 4 6 5 5 4 3 4
18 18 18 15 14 13 11 11 10 9 9 12 9 9 6 5 5 8 6 5 6 6 6 7 6 5 6 6 6 7 5 5
19 16 14 13 11 11 13 13 11 8 10 10 11 13 13 9 7 7 5 4 4 5 6 6 6 6 7 6 7 9 7 8
20 18 16 13 15 14 11 14 12 10 8 9 12 14 14 13 11 8 8 5 3 5 5 6 5 6 7 8 8 8 6 7
20 18 17 17 16 15 14 14 12 10 8 8 11 14 9 9 9 9 6 6 5 5 6 6 7 9 8 7 5 6 6 7
21 20 19 18 18 20 20 17 11 9 9 10 11 11 12 11 11 9 7 7 6 6 7 8 8 9 8 7 5 7 7 6
22 21 21 20 20 18 18 18 16 11 9 11 10 9 11 13 12 11 10 8 7 8 8 9 8 8 8 6 5 5 7 4
21 19 16 16 16 15 15 16 14 12 9 6 10 9 11 12 12 11 10 9 8 8 9 9 9 9 7 6 6 7 8 7
19 17 17 17 17 16 18 15 17 14 10 10 8 9 11 11 11 10 10 10 8 8 8 8 8 9 8 8 7 7 8 8
17 17 18 19 18 17 16 15 15 14 14 14 11 10 11 11 11 11 10 10 9 8 8 8 8 7 8 7 8 7 7 7
17 14 14 13 11 13 17 15 14 15 14 14 14 12 12 11 10 10 11 10 10 9 7 7 7 6 6 6 7 6 7 8
17 16 14 15 16 16 13 13 15 14 16 15 14 12 12 12 12 11 10 10 10 9 9 7 6 6 4 6 6 7 9 10
10 11 15 20 19 17 17 16 15 15 13 14 13 14 13 12 11 11 11 10 10 9 7 7 6 4 7 7 6 7 8 9
9 20 19 18 22 23 20 18 17 17 15 14 14 15 14 13 12 12 12 12 11 9 7 7 6 5 8 7 7 6 7 7
20 16 17 18 20 20 20 21 20 19 17 16 16 16 16 15 13 12 11 11 11 10 7 6 6 4 8 8 7 7 6 7
Wind_Direction
149 136 131 129 127 123 121 118 120 113 106 99 81 85 75 74 69 65 68 65 68 83 78 67 54 57 46 56 68 38 48 48
132 127 128 123 127 128 132 131 142 132 122 115 92 107 96 74 73 74 67 74 66 80 78 74 62 60 50 50 78 53 33 24
142 136 140 148 148 140 137 141 145 132 130 120 123 134 102 104 95 77 76 79 80 84 89 80 74 71 52 52 63 75 52 18
153 153 149 141 154 157 154 154 156 147 132 126 112 102 76 92 86 83 69 81 81 89 87 92 84 75 72 62 60 72 108 45
152 158 161 164 167 155 151 163 167 173 156 146 154 147 144 140 135 113 95 87 84 90 91 88 86 80 72 65 52 60 83 87
169 173 173 175 160 161 165 165 169 168 163 157 152 138 121 128 123 112 106 87 87 92 95 90 88 77 73 76 64 64 55 75
185 181 162 164 160 158 157 165 176 168 164 159 154 147 144 143 138 127 122 106 94 92 93 97 92 86 81 77 73 69 69 71
183 168 168 161 164 164 163 165 180 181 170 161 152 151 148 150 144 139 136 126 113 118 106 103 93 95 93 86 75 71 73 84
185 171 167 167 173 166 167 176 180 181 175 162 158 153 150 151 145 141 137 133 138 134 112 109 106 103 94 88 87 87 83 82
187 178 173 169 172 174 169 172 173 168 167 156 163 154 150 148 143 138 139 135 136 126 116 119 114 106 102 97 96 99 97 93
192 180 177 176 175 171 166 163 158 151 151 158 156 149 143 142 142 143 146 139 127 127 119 125 117 109 108 107 104 102 103 92
198 192 175 167 163 163 157 150 147 144 139 128 138 140 138 140 141 143 140 131 137 129 126 128 125 120 119 112 110 111 109 109
194 187 175 171 164 162 160 156 151 148 139 129 132 135 135 135 142 142 136 139 137 132 126 124 127 128 131 134 125 120 119 113
182 172 179 173 164 161 161 158 154 148 143 142 140 144 141 141 143 142 139 137 135 133 125 122 124 131 130 132 133 131 119 119
174 171 173 166 165 160 154 157 157 153 150 153 149 151 148 146 143 143 143 140 131 125 117 111 108 110 116 141 136 130 112 113
166 160 160 160 157 160 167 160 159 161 156 157 156 147 145 146 146 141 136 137 127 124 116 107 108 105 101 121 128 126 116 114
150 152 160 163 162 165 167 166 165 161 163 160 152 150 146 155 148 140 137 130 126 122 121 127 129 121 126 119 125 125 125 124
201 166 171 183 181 169 173 167 157 163 165 160 159 156 156 156 152 144 144 139 132 130 129 132 133 139 150 132 134 121 118 118
311 261 191 183 178 177 161 164 164 162 164 166 163 162 161 159 154 151 147 145 143 142 141 142 140 149 159 150 142 119 113 102